Year,Month,Day,Hour,Minute,Value (Times are PST for temperature in C)
2021,04,16,00,00,9.70
2021,04,16,00,01,9.70
2021,04,16,00,02,9.70
2021,04,16,00,03,9.60
2021,04,16,00,04,9.60
2021,04,16,00,05,9.60
2021,04,16,00,06,9.60
2021,04,16,00,07,9.60
2021,04,16,00,08,9.60
2021,04,16,00,09,9.60
2021,04,16,00,10,9.50
2021,04,16,00,11,9.50
2021,04,16,00,12,9.50
2021,04,16,00,13,9.50
2021,04,16,00,14,9.40
2021,04,16,00,15,9.40
2021,04,16,00,16,9.40
2021,04,16,00,17,9.40
2021,04,16,00,18,9.40
2021,04,16,00,19,9.40
2021,04,16,00,20,9.40
2021,04,16,00,21,9.40
2021,04,16,00,22,9.30
2021,04,16,00,23,9.30
2021,04,16,00,24,9.30
2021,04,16,00,25,9.30
2021,04,16,00,26,9.30
2021,04,16,00,27,9.30
2021,04,16,00,28,9.30
2021,04,16,00,29,9.30
2021,04,16,00,30,9.20
2021,04,16,00,31,9.20
2021,04,16,00,32,9.20
2021,04,16,00,33,9.20
2021,04,16,00,34,9.10
2021,04,16,00,35,9.10
2021,04,16,00,36,9.10
2021,04,16,00,37,9.10
2021,04,16,00,38,9.00
2021,04,16,00,39,9.00
2021,04,16,00,40,8.90
2021,04,16,00,41,8.90
2021,04,16,00,42,8.90
2021,04,16,00,43,8.90
2021,04,16,00,44,8.80
2021,04,16,00,45,8.80
2021,04,16,00,46,8.80
2021,04,16,00,47,8.70
2021,04,16,00,48,8.70
2021,04,16,00,49,8.70
2021,04,16,00,50,8.70
2021,04,16,00,51,8.70
2021,04,16,00,52,8.70
2021,04,16,00,53,8.70
2021,04,16,00,54,8.70
2021,04,16,00,55,8.70
2021,04,16,00,56,8.70
2021,04,16,00,57,8.70
2021,04,16,00,58,8.70
2021,04,16,00,59,8.70
2021,04,16,01,00,8.70
2021,04,16,01,01,8.70
2021,04,16,01,02,8.60
2021,04,16,01,03,8.60
2021,04,16,01,04,8.60
2021,04,16,01,05,8.60
2021,04,16,01,06,8.60
2021,04,16,01,07,8.60
2021,04,16,01,08,8.60
2021,04,16,01,09,8.60
2021,04,16,01,10,8.50
2021,04,16,01,11,8.50
2021,04,16,01,12,8.50
2021,04,16,01,13,8.50
2021,04,16,01,14,8.50
2021,04,16,01,15,8.40
2021,04,16,01,16,8.40
2021,04,16,01,17,8.40
2021,04,16,01,18,8.40
2021,04,16,01,19,8.40
2021,04,16,01,20,8.30
2021,04,16,01,21,8.30
2021,04,16,01,22,8.30
2021,04,16,01,23,8.30
2021,04,16,01,24,8.30
2021,04,16,01,25,8.30
2021,04,16,01,26,8.30
2021,04,16,01,27,8.30
2021,04,16,01,28,8.30
2021,04,16,01,29,8.30
2021,04,16,01,30,8.30
2021,04,16,01,31,8.30
2021,04,16,01,32,8.30
2021,04,16,01,33,8.30
2021,04,16,01,34,8.30
2021,04,16,01,35,8.30
2021,04,16,01,36,8.20
2021,04,16,01,37,8.20
2021,04,16,01,38,8.20
2021,04,16,01,39,8.20
2021,04,16,01,40,8.20
2021,04,16,01,41,8.20
2021,04,16,01,42,8.20
2021,04,16,01,43,8.10
2021,04,16,01,44,8.10
2021,04,16,01,45,8.10
2021,04,16,01,46,8.10
2021,04,16,01,47,8.00
2021,04,16,01,48,8.00
2021,04,16,01,49,8.00
2021,04,16,01,50,8.00
2021,04,16,01,51,7.90
2021,04,16,01,52,7.90
2021,04,16,01,53,7.90
2021,04,16,01,54,7.90
2021,04,16,01,55,7.90
2021,04,16,01,56,7.90
2021,04,16,01,57,7.90
2021,04,16,01,58,7.90
2021,04,16,01,59,7.90
2021,04,16,02,00,7.90
2021,04,16,02,01,7.80
2021,04,16,02,02,7.80
2021,04,16,02,03,7.80
2021,04,16,02,04,7.80
2021,04,16,02,05,7.80
2021,04,16,02,06,7.70
2021,04,16,02,07,7.70
2021,04,16,02,08,7.70
2021,04,16,02,09,7.70
2021,04,16,02,10,7.70
2021,04,16,02,11,7.70
2021,04,16,02,12,7.70
2021,04,16,02,13,7.70
2021,04,16,02,14,7.70
2021,04,16,02,15,7.70
2021,04,16,02,16,7.70
2021,04,16,02,17,7.70
2021,04,16,02,18,7.70
2021,04,16,02,19,7.60
2021,04,16,02,20,7.60
2021,04,16,02,21,7.60
2021,04,16,02,22,7.60
2021,04,16,02,23,7.60
2021,04,16,02,24,7.60
2021,04,16,02,25,7.60
2021,04,16,02,26,7.50
2021,04,16,02,27,7.50
2021,04,16,02,28,7.50
2021,04,16,02,29,7.50
2021,04,16,02,30,7.50
2021,04,16,02,31,7.40
2021,04,16,02,32,7.40
2021,04,16,02,33,7.40
2021,04,16,02,34,7.40
2021,04,16,02,35,7.40
2021,04,16,02,36,7.40
2021,04,16,02,37,7.30
2021,04,16,02,38,7.30
2021,04,16,02,39,7.30
2021,04,16,02,40,7.30
2021,04,16,02,41,7.30
2021,04,16,02,42,7.20
2021,04,16,02,43,7.20
2021,04,16,02,44,7.20
2021,04,16,02,45,7.20
2021,04,16,02,46,7.20
2021,04,16,02,47,7.20
2021,04,16,02,48,7.20
2021,04,16,02,49,7.20
2021,04,16,02,50,7.20
2021,04,16,02,51,7.20
2021,04,16,02,52,7.20
2021,04,16,02,53,7.20
2021,04,16,02,54,7.10
2021,04,16,02,55,7.10
2021,04,16,02,56,7.10
2021,04,16,02,57,7.10
2021,04,16,02,58,7.10
2021,04,16,02,59,7.10
2021,04,16,03,00,7.10
2021,04,16,03,01,7.10
2021,04,16,03,02,7.10
2021,04,16,03,03,7.10
2021,04,16,03,04,7.10
2021,04,16,03,05,7.10
2021,04,16,03,06,7.10
2021,04,16,03,07,7.10
2021,04,16,03,08,7.10
2021,04,16,03,09,7.10
2021,04,16,03,10,7.00
2021,04,16,03,11,7.00
2021,04,16,03,12,7.00
2021,04,16,03,13,7.00
2021,04,16,03,14,7.10
2021,04,16,03,15,7.00
2021,04,16,03,16,7.00
2021,04,16,03,17,7.00
2021,04,16,03,18,7.00
2021,04,16,03,19,7.00
2021,04,16,03,20,6.90
2021,04,16,03,21,6.90
2021,04,16,03,22,6.90
2021,04,16,03,23,6.90
2021,04,16,03,24,6.90
2021,04,16,03,25,6.90
2021,04,16,03,26,6.80
2021,04,16,03,27,6.80
2021,04,16,03,28,6.80
2021,04,16,03,29,6.80
2021,04,16,03,30,6.70
2021,04,16,03,31,6.70
2021,04,16,03,32,6.70
2021,04,16,03,33,6.70
2021,04,16,03,34,6.70
2021,04,16,03,35,6.70
2021,04,16,03,36,6.60
2021,04,16,03,37,6.60
2021,04,16,03,38,6.60
2021,04,16,03,39,6.60
2021,04,16,03,40,6.60
2021,04,16,03,41,6.60
2021,04,16,03,42,6.60
2021,04,16,03,43,6.60
2021,04,16,03,44,6.60
2021,04,16,03,45,6.60
2021,04,16,03,46,6.60
2021,04,16,03,47,6.50
2021,04,16,03,48,6.50
2021,04,16,03,49,6.50
2021,04,16,03,50,6.50
2021,04,16,03,51,6.50
2021,04,16,03,52,6.50
2021,04,16,03,53,6.50
2021,04,16,03,54,6.50
2021,04,16,03,55,6.50
2021,04,16,03,56,6.50
2021,04,16,03,57,6.40
2021,04,16,03,58,6.40
2021,04,16,03,59,6.40
2021,04,16,04,00,6.40
2021,04,16,04,01,6.40
2021,04,16,04,02,6.40
2021,04,16,04,03,6.40
2021,04,16,04,04,6.40
2021,04,16,04,05,6.40
2021,04,16,04,06,6.40
2021,04,16,04,07,6.40
2021,04,16,04,08,6.40
2021,04,16,04,09,6.40
2021,04,16,04,10,6.40
2021,04,16,04,11,6.40
2021,04,16,04,12,6.40
2021,04,16,04,13,6.30
2021,04,16,04,14,6.40
2021,04,16,04,15,6.40
2021,04,16,04,16,6.40
2021,04,16,04,17,6.40
2021,04,16,04,18,6.40
2021,04,16,04,19,6.40
2021,04,16,04,20,6.40
2021,04,16,04,21,6.30
2021,04,16,04,22,6.30
2021,04,16,04,23,6.30
2021,04,16,04,24,6.30
2021,04,16,04,25,6.30
2021,04,16,04,26,6.30
2021,04,16,04,27,6.30
2021,04,16,04,28,6.20
2021,04,16,04,29,6.20
2021,04,16,04,30,6.20
2021,04,16,04,31,6.20
2021,04,16,04,32,6.20
2021,04,16,04,33,6.20
2021,04,16,04,34,6.10
2021,04,16,04,35,6.10
2021,04,16,04,36,6.10
2021,04,16,04,37,6.10
2021,04,16,04,38,6.10
2021,04,16,04,39,6.10
2021,04,16,04,40,6.10
2021,04,16,04,41,6.00
2021,04,16,04,42,6.00
2021,04,16,04,43,6.00
2021,04,16,04,44,6.00
2021,04,16,04,45,6.00
2021,04,16,04,46,6.00
2021,04,16,04,47,6.00
2021,04,16,04,48,5.90
2021,04,16,04,49,5.90
2021,04,16,04,50,5.90
2021,04,16,04,51,5.90
2021,04,16,04,52,5.90
2021,04,16,04,53,6.00
2021,04,16,04,54,6.00
2021,04,16,04,55,6.10
2021,04,16,04,56,6.10
2021,04,16,04,57,6.20
2021,04,16,04,58,6.20
2021,04,16,04,59,6.20
2021,04,16,05,00,6.20
2021,04,16,05,01,6.10
2021,04,16,05,02,6.10
2021,04,16,05,03,6.10
2021,04,16,05,04,6.10
2021,04,16,05,05,6.10
2021,04,16,05,06,6.00
2021,04,16,05,07,6.00
2021,04,16,05,08,6.00
2021,04,16,05,09,6.00
2021,04,16,05,10,6.00
2021,04,16,05,11,6.00
2021,04,16,05,12,6.00
2021,04,16,05,13,6.00
2021,04,16,05,14,5.90
2021,04,16,05,15,5.90
2021,04,16,05,16,5.90
2021,04,16,05,17,5.90
2021,04,16,05,18,5.90
2021,04,16,05,19,5.90
2021,04,16,05,20,5.90
2021,04,16,05,21,5.90
2021,04,16,05,22,6.00
2021,04,16,05,23,6.00
2021,04,16,05,24,6.00
2021,04,16,05,25,6.00
2021,04,16,05,26,6.00
2021,04,16,05,27,6.00
2021,04,16,05,28,5.90
2021,04,16,05,29,5.90
2021,04,16,05,30,5.90
2021,04,16,05,31,5.90
2021,04,16,05,32,5.90
2021,04,16,05,33,5.90
2021,04,16,05,34,5.90
2021,04,16,05,35,5.90
2021,04,16,05,36,5.90
2021,04,16,05,37,5.90
2021,04,16,05,38,5.90
2021,04,16,05,39,5.90
2021,04,16,05,40,5.90
2021,04,16,05,41,5.90
2021,04,16,05,42,5.90
2021,04,16,05,43,5.90
2021,04,16,05,44,5.90
2021,04,16,05,45,5.90
2021,04,16,05,46,5.80
2021,04,16,05,47,5.80
2021,04,16,05,48,5.80
2021,04,16,05,49,5.80
2021,04,16,05,50,5.80
2021,04,16,05,51,5.80
2021,04,16,05,52,5.80
2021,04,16,05,53,5.80
2021,04,16,05,54,5.80
2021,04,16,05,55,5.80
2021,04,16,05,56,5.80
2021,04,16,05,57,5.80
2021,04,16,05,58,5.80
2021,04,16,05,59,5.80
2021,04,16,06,00,5.80
2021,04,16,06,01,5.80
2021,04,16,06,02,5.80
2021,04,16,06,03,5.80
2021,04,16,06,04,5.80
2021,04,16,06,05,5.80
2021,04,16,06,06,5.80
2021,04,16,06,07,5.80
2021,04,16,06,08,5.80
2021,04,16,06,09,5.90
2021,04,16,06,10,5.90
2021,04,16,06,11,5.90
2021,04,16,06,12,5.90
2021,04,16,06,13,6.00
2021,04,16,06,14,6.00
2021,04,16,06,15,6.00
2021,04,16,06,16,6.00
2021,04,16,06,17,6.10
2021,04,16,06,18,6.10
2021,04,16,06,19,6.10
2021,04,16,06,20,6.10
2021,04,16,06,21,6.20
2021,04,16,06,22,6.20
2021,04,16,06,23,6.30
2021,04,16,06,24,6.30
2021,04,16,06,25,6.40
2021,04,16,06,26,6.40
2021,04,16,06,27,6.50
2021,04,16,06,28,6.50
2021,04,16,06,29,6.50
2021,04,16,06,30,6.50
2021,04,16,06,31,6.50
2021,04,16,06,32,6.50
2021,04,16,06,33,6.50
2021,04,16,06,34,6.40
2021,04,16,06,35,6.40
2021,04,16,06,36,6.40
2021,04,16,06,37,6.40
2021,04,16,06,38,6.40
2021,04,16,06,39,6.40
2021,04,16,06,40,6.40
2021,04,16,06,41,6.30
2021,04,16,06,42,6.30
2021,04,16,06,43,6.30
2021,04,16,06,44,6.30
2021,04,16,06,45,6.30
2021,04,16,06,46,6.30
2021,04,16,06,47,6.30
2021,04,16,06,48,6.40
2021,04,16,06,49,6.50
2021,04,16,06,50,6.60
2021,04,16,06,51,6.80
2021,04,16,06,52,6.90
2021,04,16,06,53,7.00
2021,04,16,06,54,7.10
2021,04,16,06,55,7.10
2021,04,16,06,56,7.20
2021,04,16,06,57,7.20
2021,04,16,06,58,7.30
2021,04,16,06,59,7.40
2021,04,16,07,00,7.40
2021,04,16,07,01,7.50
2021,04,16,07,02,7.50
2021,04,16,07,03,7.50
2021,04,16,07,04,7.50
2021,04,16,07,05,7.40
2021,04,16,07,06,7.30
2021,04,16,07,07,7.30
2021,04,16,07,08,7.20
2021,04,16,07,09,7.20
2021,04,16,07,10,7.20
2021,04,16,07,11,7.20
2021,04,16,07,12,7.20
2021,04,16,07,13,7.30
2021,04,16,07,14,7.30
2021,04,16,07,15,7.40
2021,04,16,07,16,7.50
2021,04,16,07,17,7.60
2021,04,16,07,18,7.70
2021,04,16,07,19,7.90
2021,04,16,07,20,8.00
2021,04,16,07,21,8.20
2021,04,16,07,22,8.40
2021,04,16,07,23,8.50
2021,04,16,07,24,8.70
2021,04,16,07,25,8.90
2021,04,16,07,26,9.10
2021,04,16,07,27,9.20
2021,04,16,07,28,9.40
2021,04,16,07,29,9.50
2021,04,16,07,30,9.70
2021,04,16,07,31,9.80
2021,04,16,07,32,9.90
2021,04,16,07,33,10.10
2021,04,16,07,34,10.20
2021,04,16,07,35,10.20
2021,04,16,07,36,10.40
2021,04,16,07,37,10.50
2021,04,16,07,38,10.60
2021,04,16,07,39,10.70
2021,04,16,07,40,10.80
2021,04,16,07,41,10.80
2021,04,16,07,42,10.90
2021,04,16,07,43,10.90
2021,04,16,07,44,10.90
2021,04,16,07,45,11.00
2021,04,16,07,46,11.10
2021,04,16,07,47,11.20
2021,04,16,07,48,11.30
2021,04,16,07,49,11.40
2021,04,16,07,50,11.50
2021,04,16,07,51,11.60
2021,04,16,07,52,11.70
2021,04,16,07,53,11.80
2021,04,16,07,54,11.90
2021,04,16,07,55,12.00
2021,04,16,07,56,12.10
2021,04,16,07,57,12.20
2021,04,16,07,58,12.30
2021,04,16,07,59,12.40
2021,04,16,08,00,12.40
2021,04,16,08,01,12.50
2021,04,16,08,02,12.60
2021,04,16,08,03,12.70
2021,04,16,08,04,12.70
2021,04,16,08,05,12.80
2021,04,16,08,06,12.90
2021,04,16,08,07,13.00
2021,04,16,08,08,13.00
2021,04,16,08,09,13.10
2021,04,16,08,10,13.20
2021,04,16,08,11,13.20
2021,04,16,08,12,13.30
2021,04,16,08,13,13.30
2021,04,16,08,14,13.40
2021,04,16,08,15,13.50
2021,04,16,08,16,13.50
2021,04,16,08,17,13.60
2021,04,16,08,18,13.60
2021,04,16,08,19,13.70
2021,04,16,08,20,13.70
2021,04,16,08,21,13.80
2021,04,16,08,22,13.80
2021,04,16,08,23,13.80
2021,04,16,08,24,13.90
2021,04,16,08,25,13.90
2021,04,16,08,26,14.00
2021,04,16,08,27,14.00
2021,04,16,08,28,14.00
2021,04,16,08,29,14.10
2021,04,16,08,30,14.10
2021,04,16,08,31,14.10
2021,04,16,08,32,14.10
2021,04,16,08,33,14.20
2021,04,16,08,34,14.20
2021,04,16,08,35,14.20
2021,04,16,08,36,14.30
2021,04,16,08,37,14.30
2021,04,16,08,38,14.40
2021,04,16,08,39,14.40
2021,04,16,08,40,14.40
2021,04,16,08,41,14.40
2021,04,16,08,42,14.40
2021,04,16,08,43,14.40
2021,04,16,08,44,14.40
2021,04,16,08,45,14.30
2021,04,16,08,46,14.40
2021,04,16,08,47,14.40
2021,04,16,08,48,14.40
2021,04,16,08,49,14.40
2021,04,16,08,50,14.40
2021,04,16,08,51,14.30
2021,04,16,08,52,14.30
2021,04,16,08,53,14.30
2021,04,16,08,54,14.30
2021,04,16,08,55,14.20
2021,04,16,08,56,14.20
2021,04,16,08,57,14.10
2021,04,16,08,58,14.10
2021,04,16,08,59,14.10
2021,04,16,09,00,14.10
2021,04,16,09,01,14.10
2021,04,16,09,02,14.20
2021,04,16,09,03,14.20
2021,04,16,09,04,14.20
2021,04,16,09,05,14.20
2021,04,16,09,06,14.30
2021,04,16,09,07,14.30
2021,04,16,09,08,14.30
2021,04,16,09,09,14.30
2021,04,16,09,10,14.30
2021,04,16,09,11,14.30
2021,04,16,09,12,14.30
2021,04,16,09,13,14.30
2021,04,16,09,14,14.30
2021,04,16,09,15,14.30
2021,04,16,09,16,14.30
2021,04,16,09,17,14.30
2021,04,16,09,18,14.40
2021,04,16,09,19,14.40
2021,04,16,09,20,14.50
2021,04,16,09,21,14.50
2021,04,16,09,22,14.50
2021,04,16,09,23,14.60
2021,04,16,09,24,14.60
2021,04,16,09,25,14.60
2021,04,16,09,26,14.60
2021,04,16,09,27,14.60
2021,04,16,09,28,14.60
2021,04,16,09,29,14.60
2021,04,16,09,30,14.70
2021,04,16,09,31,14.70
2021,04,16,09,32,14.70
2021,04,16,09,33,14.70
2021,04,16,09,34,14.80
2021,04,16,09,35,14.80
2021,04,16,09,36,14.90
2021,04,16,09,37,14.90
2021,04,16,09,38,14.90
2021,04,16,09,39,15.00
2021,04,16,09,40,15.10
2021,04,16,09,41,15.10
2021,04,16,09,42,15.20
2021,04,16,09,43,15.30
2021,04,16,09,44,15.30
2021,04,16,09,45,15.30
2021,04,16,09,46,15.40
2021,04,16,09,47,15.50
2021,04,16,09,48,15.50
2021,04,16,09,49,15.40
2021,04,16,09,50,15.40
2021,04,16,09,51,15.50
2021,04,16,09,52,15.50
2021,04,16,09,53,15.40
2021,04,16,09,54,15.50
2021,04,16,09,55,15.60
2021,04,16,09,56,15.70
2021,04,16,09,57,15.80
2021,04,16,09,58,15.80
2021,04,16,09,59,15.90
2021,04,16,10,00,15.90
2021,04,16,10,01,16.00
2021,04,16,10,02,16.10
2021,04,16,10,03,16.20
2021,04,16,10,04,16.20
2021,04,16,10,05,16.30
2021,04,16,10,06,16.30
2021,04,16,10,07,16.40
2021,04,16,10,08,16.40
2021,04,16,10,09,16.40
2021,04,16,10,10,16.50
2021,04,16,10,11,16.50
2021,04,16,10,12,16.60
2021,04,16,10,13,16.60
2021,04,16,10,14,16.60
2021,04,16,10,15,16.60
2021,04,16,10,16,16.60
2021,04,16,10,17,16.60
2021,04,16,10,18,16.60
2021,04,16,10,19,16.60
2021,04,16,10,20,16.60
2021,04,16,10,21,16.70
2021,04,16,10,22,16.80
2021,04,16,10,23,16.80
2021,04,16,10,24,16.80
2021,04,16,10,25,16.70
2021,04,16,10,26,16.70
2021,04,16,10,27,16.80
2021,04,16,10,28,16.80
2021,04,16,10,29,16.90
2021,04,16,10,30,16.90
2021,04,16,10,31,16.90
2021,04,16,10,32,17.00
2021,04,16,10,33,17.10
2021,04,16,10,34,17.20
2021,04,16,10,35,17.30
2021,04,16,10,36,17.40
2021,04,16,10,37,17.40
2021,04,16,10,38,17.50
2021,04,16,10,39,17.50
2021,04,16,10,40,17.50
2021,04,16,10,41,17.50
2021,04,16,10,42,17.60
2021,04,16,10,43,17.60
2021,04,16,10,44,17.70
2021,04,16,10,45,17.70
2021,04,16,10,46,17.80
2021,04,16,10,47,17.80
2021,04,16,10,48,17.80
2021,04,16,10,49,17.80
2021,04,16,10,50,17.90
2021,04,16,10,51,18.00
2021,04,16,10,52,18.00
2021,04,16,10,53,17.90
2021,04,16,10,54,17.80
2021,04,16,10,55,17.60
2021,04,16,10,56,17.60
2021,04,16,10,57,17.60
2021,04,16,10,58,17.70
2021,04,16,10,59,17.70
2021,04,16,11,00,17.70
2021,04,16,11,01,17.70
2021,04,16,11,02,17.60
2021,04,16,11,03,17.60
2021,04,16,11,04,17.70
2021,04,16,11,05,17.70
2021,04,16,11,06,17.80
2021,04,16,11,07,17.90
2021,04,16,11,08,17.80
2021,04,16,11,09,17.80
2021,04,16,11,10,17.90
2021,04,16,11,11,18.00
2021,04,16,11,12,18.20
2021,04,16,11,13,18.30
2021,04,16,11,14,18.30
2021,04,16,11,15,18.40
2021,04,16,11,16,18.40
2021,04,16,11,17,18.20
2021,04,16,11,18,18.10
2021,04,16,11,19,18.00
2021,04,16,11,20,18.10
2021,04,16,11,21,18.20
2021,04,16,11,22,18.20
2021,04,16,11,23,18.20
2021,04,16,11,24,18.20
2021,04,16,11,25,18.20
2021,04,16,11,26,18.20
2021,04,16,11,27,18.30
2021,04,16,11,28,18.40
2021,04,16,11,29,18.50
2021,04,16,11,30,18.60
2021,04,16,11,31,18.70
2021,04,16,11,32,18.50
2021,04,16,11,33,18.30
2021,04,16,11,34,18.20
2021,04,16,11,35,18.00
2021,04,16,11,36,17.90
2021,04,16,11,37,17.80
2021,04,16,11,38,17.80
2021,04,16,11,39,17.80
2021,04,16,11,40,17.80
2021,04,16,11,41,17.80
2021,04,16,11,42,17.80
2021,04,16,11,43,17.70
2021,04,16,11,44,17.70
2021,04,16,11,45,17.70
2021,04,16,11,46,17.70
2021,04,16,11,47,17.80
2021,04,16,11,48,18.00
2021,04,16,11,49,18.10
2021,04,16,11,50,18.20
2021,04,16,11,51,18.30
2021,04,16,11,52,18.30
2021,04,16,11,53,18.30
2021,04,16,11,54,18.20
2021,04,16,11,55,18.10
2021,04,16,11,56,18.20
2021,04,16,11,57,18.30
2021,04,16,11,58,18.40
2021,04,16,11,59,18.50
2021,04,16,12,00,18.50
2021,04,16,12,01,18.40
2021,04,16,12,02,18.40
2021,04,16,12,03,18.30
2021,04,16,12,04,18.20
2021,04,16,12,05,18.20
2021,04,16,12,06,18.30
2021,04,16,12,07,18.30
2021,04,16,12,08,18.20
2021,04,16,12,09,18.20
2021,04,16,12,10,18.30
2021,04,16,12,11,18.30
2021,04,16,12,12,18.20
2021,04,16,12,13,18.30
2021,04,16,12,14,18.50
2021,04,16,12,15,18.60
2021,04,16,12,16,18.70
2021,04,16,12,17,18.70
2021,04,16,12,18,18.70
2021,04,16,12,19,18.80
2021,04,16,12,20,18.80
2021,04,16,12,21,18.80
2021,04,16,12,22,18.80
2021,04,16,12,23,18.90
2021,04,16,12,24,19.00
2021,04,16,12,25,19.20
2021,04,16,12,26,19.30
2021,04,16,12,27,19.50
2021,04,16,12,28,19.70
2021,04,16,12,29,19.60
2021,04,16,12,30,19.40
2021,04,16,12,31,19.30
2021,04,16,12,32,19.10
2021,04,16,12,33,19.00
2021,04,16,12,34,18.90
2021,04,16,12,35,18.80
2021,04,16,12,36,18.80
2021,04,16,12,37,18.90
2021,04,16,12,38,19.00
2021,04,16,12,39,19.10
2021,04,16,12,40,19.20
2021,04,16,12,41,19.40
2021,04,16,12,42,19.60
2021,04,16,12,43,19.80
2021,04,16,12,44,20.00
2021,04,16,12,45,20.10
2021,04,16,12,46,20.00
2021,04,16,12,47,19.80
2021,04,16,12,48,19.80
2021,04,16,12,49,19.80
2021,04,16,12,50,19.80
2021,04,16,12,51,19.70
2021,04,16,12,52,19.70
2021,04,16,12,53,19.70
2021,04,16,12,54,19.70
2021,04,16,12,55,19.80
2021,04,16,12,56,19.80
2021,04,16,12,57,19.90
2021,04,16,12,58,20.00
2021,04,16,12,59,20.20
2021,04,16,13,00,20.30
2021,04,16,13,01,20.30
2021,04,16,13,02,20.30
2021,04,16,13,03,20.20
2021,04,16,13,04,20.10
2021,04,16,13,05,20.00
2021,04,16,13,06,20.10
2021,04,16,13,07,20.30
2021,04,16,13,08,20.30
2021,04,16,13,09,20.40
2021,04,16,13,10,20.40
2021,04,16,13,11,20.40
2021,04,16,13,12,20.50
2021,04,16,13,13,20.60
2021,04,16,13,14,20.70
2021,04,16,13,15,20.80
2021,04,16,13,16,20.80
2021,04,16,13,17,20.70
2021,04,16,13,18,20.60
2021,04,16,13,19,20.60
2021,04,16,13,20,20.60
2021,04,16,13,21,20.50
2021,04,16,13,22,20.30
2021,04,16,13,23,20.30
2021,04,16,13,24,20.20
2021,04,16,13,25,20.20
2021,04,16,13,26,20.10
2021,04,16,13,27,20.20
2021,04,16,13,28,20.10
2021,04,16,13,29,20.00
2021,04,16,13,30,20.00
2021,04,16,13,31,20.00
2021,04,16,13,32,20.00
2021,04,16,13,33,19.90
2021,04,16,13,34,19.90
2021,04,16,13,35,19.90
2021,04,16,13,36,19.80
2021,04,16,13,37,19.80
2021,04,16,13,38,19.70
2021,04,16,13,39,19.70
2021,04,16,13,40,19.80
2021,04,16,13,41,19.80
2021,04,16,13,42,19.80
2021,04,16,13,43,19.80
2021,04,16,13,44,19.90
2021,04,16,13,45,19.80
2021,04,16,13,46,19.60
2021,04,16,13,47,19.50
2021,04,16,13,48,19.50
2021,04,16,13,49,19.60
2021,04,16,13,50,19.60
2021,04,16,13,51,19.70
2021,04,16,13,52,19.60
2021,04,16,13,53,19.60
2021,04,16,13,54,19.70
2021,04,16,13,55,19.70
2021,04,16,13,56,19.90
2021,04,16,13,57,19.90
2021,04,16,13,58,20.00
2021,04,16,13,59,20.20
2021,04,16,14,00,20.40
2021,04,16,14,01,20.40
2021,04,16,14,02,20.60
2021,04,16,14,03,20.60
2021,04,16,14,04,20.70
2021,04,16,14,05,20.80
2021,04,16,14,06,20.80
2021,04,16,14,07,20.80
2021,04,16,14,08,20.70
2021,04,16,14,09,20.70
2021,04,16,14,10,20.60
2021,04,16,14,11,20.50
2021,04,16,14,12,20.40
2021,04,16,14,13,20.40
2021,04,16,14,14,20.30
2021,04,16,14,15,20.30
2021,04,16,14,16,20.40
2021,04,16,14,17,20.40
2021,04,16,14,18,20.50
2021,04,16,14,19,20.40
2021,04,16,14,20,20.30
2021,04,16,14,21,20.20
2021,04,16,14,22,20.20
2021,04,16,14,23,20.30
2021,04,16,14,24,20.40
2021,04,16,14,25,20.50
2021,04,16,14,26,20.50
2021,04,16,14,27,20.40
2021,04,16,14,28,20.40
2021,04,16,14,29,20.40
2021,04,16,14,30,20.50
2021,04,16,14,31,20.60
2021,04,16,14,32,20.70
2021,04,16,14,33,20.80
2021,04,16,14,34,21.00
2021,04,16,14,35,21.20
2021,04,16,14,36,21.30
2021,04,16,14,37,21.30
2021,04,16,14,38,21.30
2021,04,16,14,39,21.30
2021,04,16,14,40,21.40
2021,04,16,14,41,21.50
2021,04,16,14,42,21.60
2021,04,16,14,43,21.70
2021,04,16,14,44,21.80
2021,04,16,14,45,21.80
2021,04,16,14,46,21.90
2021,04,16,14,47,22.00
2021,04,16,14,48,22.10
2021,04,16,14,49,22.30
2021,04,16,14,50,22.40
2021,04,16,14,51,22.50
2021,04,16,14,52,22.50
2021,04,16,14,53,22.50
2021,04,16,14,54,22.60
2021,04,16,14,55,22.70
2021,04,16,14,56,22.70
2021,04,16,14,57,22.50
2021,04,16,14,58,22.20
2021,04,16,14,59,21.90
2021,04,16,15,00,21.70
2021,04,16,15,01,21.60
2021,04,16,15,02,21.40
2021,04,16,15,03,21.30
2021,04,16,15,04,21.30
2021,04,16,15,05,21.30
2021,04,16,15,06,21.30
2021,04,16,15,07,21.30
2021,04,16,15,08,21.30
2021,04,16,15,09,21.40
2021,04,16,15,10,21.40
2021,04,16,15,11,21.40
2021,04,16,15,12,21.40
2021,04,16,15,13,21.50
2021,04,16,15,14,21.50
2021,04,16,15,15,21.60
2021,04,16,15,16,21.50
2021,04,16,15,17,21.60
2021,04,16,15,18,21.80
2021,04,16,15,19,22.00
2021,04,16,15,20,22.20
2021,04,16,15,21,22.40
2021,04,16,15,22,22.60
2021,04,16,15,23,22.70
2021,04,16,15,24,22.80
2021,04,16,15,25,22.90
2021,04,16,15,26,22.90
2021,04,16,15,27,22.80
2021,04,16,15,28,22.60
2021,04,16,15,29,22.60
2021,04,16,15,30,22.50
2021,04,16,15,31,22.50
2021,04,16,15,32,22.50
2021,04,16,15,33,22.60
2021,04,16,15,34,22.60
2021,04,16,15,35,22.70
2021,04,16,15,36,22.70
2021,04,16,15,37,22.80
2021,04,16,15,38,22.80
2021,04,16,15,39,22.70
2021,04,16,15,40,22.70
2021,04,16,15,41,22.70
2021,04,16,15,42,22.70
2021,04,16,15,43,22.70
2021,04,16,15,44,22.70
2021,04,16,15,45,22.70
2021,04,16,15,46,22.80
2021,04,16,15,47,22.80
2021,04,16,15,48,22.90
2021,04,16,15,49,23.00
2021,04,16,15,50,23.10
2021,04,16,15,51,23.10
2021,04,16,15,52,23.10
2021,04,16,15,53,23.10
2021,04,16,15,54,23.00
2021,04,16,15,55,22.90
2021,04,16,15,56,22.80
2021,04,16,15,57,22.80
2021,04,16,15,58,22.90
2021,04,16,15,59,22.90
2021,04,16,16,00,22.90
2021,04,16,16,01,22.90
2021,04,16,16,02,23.00
2021,04,16,16,03,23.00
2021,04,16,16,04,23.10
2021,04,16,16,05,23.00
2021,04,16,16,06,23.00
2021,04,16,16,07,23.00
2021,04,16,16,08,22.90
2021,04,16,16,09,22.90
2021,04,16,16,10,23.00
2021,04,16,16,11,23.00
2021,04,16,16,12,23.10
2021,04,16,16,13,23.20
2021,04,16,16,14,23.30
2021,04,16,16,15,23.30
2021,04,16,16,16,23.20
2021,04,16,16,17,23.00
2021,04,16,16,18,22.80
2021,04,16,16,19,22.70
2021,04,16,16,20,22.70
2021,04,16,16,21,22.70
2021,04,16,16,22,22.60
2021,04,16,16,23,22.50
2021,04,16,16,24,22.30
2021,04,16,16,25,22.20
2021,04,16,16,26,22.20
2021,04,16,16,27,22.20
2021,04,16,16,28,22.30
2021,04,16,16,29,22.40
2021,04,16,16,30,22.40
2021,04,16,16,31,22.50
2021,04,16,16,32,22.60
2021,04,16,16,33,22.70
2021,04,16,16,34,22.70
2021,04,16,16,35,22.60
2021,04,16,16,36,22.60
2021,04,16,16,37,22.60
2021,04,16,16,38,22.70
2021,04,16,16,39,22.70
2021,04,16,16,40,22.70
2021,04,16,16,41,22.80
2021,04,16,16,42,22.80
2021,04,16,16,43,22.90
2021,04,16,16,44,22.90
2021,04,16,16,45,23.00
2021,04,16,16,46,23.00
2021,04,16,16,47,22.80
2021,04,16,16,48,22.70
2021,04,16,16,49,22.60
2021,04,16,16,50,22.50
2021,04,16,16,51,22.40
2021,04,16,16,52,22.40
2021,04,16,16,53,22.50
2021,04,16,16,54,22.70
2021,04,16,16,55,22.80
2021,04,16,16,56,23.00
2021,04,16,16,57,23.10
2021,04,16,16,58,23.20
2021,04,16,16,59,23.20
2021,04,16,17,00,23.20
2021,04,16,17,01,23.10
2021,04,16,17,02,23.00
2021,04,16,17,03,22.90
2021,04,16,17,04,22.90
2021,04,16,17,05,22.90
2021,04,16,17,06,22.90
2021,04,16,17,07,22.90
2021,04,16,17,08,22.80
2021,04,16,17,09,22.80
2021,04,16,17,10,22.90
2021,04,16,17,11,22.90
2021,04,16,17,12,23.00
2021,04,16,17,13,23.10
2021,04,16,17,14,23.10
2021,04,16,17,15,23.10
2021,04,16,17,16,23.10
2021,04,16,17,17,23.20
2021,04,16,17,18,23.20
2021,04,16,17,19,23.20
2021,04,16,17,20,23.10
2021,04,16,17,21,22.90
2021,04,16,17,22,22.80
2021,04,16,17,23,22.90
2021,04,16,17,24,22.90
2021,04,16,17,25,22.90
2021,04,16,17,26,22.90
2021,04,16,17,27,22.90
2021,04,16,17,28,22.90
2021,04,16,17,29,23.00
2021,04,16,17,30,22.90
2021,04,16,17,31,22.70
2021,04,16,17,32,22.60
2021,04,16,17,33,22.50
2021,04,16,17,34,22.50
2021,04,16,17,35,22.50
2021,04,16,17,36,22.50
2021,04,16,17,37,22.60
2021,04,16,17,38,22.70
2021,04,16,17,39,22.80